Goshen, IN

9:12 AM EDT on August 22, 2017 (GMT -0400)
Goshen Municipal

Weather History for KGSH - March, 2014

Change the Weather History Date:

Friday, March 14, 2014

  Actual Average Record
Temperature  
Mean Temperature 42 °F -  
Max Temperature 52 °F 45 °F 80 °F (2012)
Min Temperature 34 °F 28 °F 6 °F (1993)
Degree Days  
Heating Degree Days 22    
Moisture  
Dew Point 31 °F    
Average Humidity 65    
Maximum Humidity 79    
Minimum Humidity 56    
Precipitation  
Precipitation 0.00 in - - ()
Sea Level Pressure  
Sea Level Pressure 29.76 in    
Wind  
Wind Speed 17 mph (SW)    
Max Wind Speed 25 mph    
Max Gust Speed 32 mph    
Visibility 10 miles    
Events      
Averages and records for this station are not official NWS values.
T = Trace of Precipitation, MM = Missing Value Source: NWS Daily Summary

Daily Weather History Graph

Daily Weather History Graph

Search for Another Location

Airport or City:

Trip Planner

Search our weather history database for the weather conditions in past years. The results will help you decide how hot, cold, wet, or windy it might be!

Date:

Astronomy

Mar. 14, 2014 Rise Set
Actual Time 7:56 AM EDT 7:48 PM EDT
Civil Twilight 7:29 AM EDT 8:16 PM EDT
Nautical Twilight 6:56 AM EDT 8:48 PM EDT
Astronomical Twilight 6:24 AM EDT 9:21 PM EDT
Moon 6:09 PM EDT (3/14) 6:37 AM EDT (3/14)
Length of Visible Light 12h 47m
Length of Day
11h 52m
Waxing Gibbous, 96% of the Moon is Illuminated
Mar 14
Waxing Gibbous
Mar 16
Full
Mar 23
Last Quarter
Mar 30
New
Apr 7
First Quarter

Hourly Weather History & Observations

Time (EDT) Temp. Windchill Dew Point Humidity Pressure Visibility Wind Dir Wind Speed Gust Speed Precip Events Conditions
12:53 AM 34.0 °F 24.2 °F 25.0 °F 70% 29.94 in 10.0 mi SSW 15.0 mph - N/A   Clear
1:53 AM 35.1 °F 24.8 °F 25.0 °F 67% 29.92 in 10.0 mi SSW 17.3 mph - N/A   Clear
2:53 AM 35.1 °F 25.5 °F 26.1 °F 70% 29.91 in 10.0 mi SSW 15.0 mph - N/A   Clear
3:53 AM 36.0 °F 26.3 °F 26.1 °F 67% 29.88 in 10.0 mi SSW 16.1 mph - N/A   Clear
4:53 AM 36.0 °F 26.7 °F 26.1 °F 67% 29.85 in 10.0 mi SSW 15.0 mph - N/A   Clear
5:53 AM 37.0 °F 27.0 °F 27.0 °F 67% 29.82 in 10.0 mi SSW 18.4 mph - N/A   Clear
6:53 AM 37.9 °F 28.2 °F 28.0 °F 68% 29.79 in 10.0 mi SSW 18.4 mph - N/A   Clear
7:53 AM 37.9 °F 27.9 °F 28.9 °F 70% 29.78 in 10.0 mi SSW 19.6 mph - N/A   Clear
8:53 AM 39.9 °F 30.2 °F 28.9 °F 65% 29.77 in 10.0 mi SSW 20.7 mph - N/A   Clear
9:53 AM 42.1 °F 33.1 °F 30.0 °F 62% 29.75 in 10.0 mi SSW 20.7 mph - N/A   Clear
10:53 AM 43.0 °F 34.2 °F 30.9 °F 62% 29.74 in 10.0 mi SSW 20.7 mph 27.6 mph N/A   Clear
11:53 AM - - - N/A% 29.68 in - SSW 20.7 mph - N/A   Unknown
12:53 PM - - - N/A% 29.66 in - SSW 25.3 mph 32.2 mph N/A   Unknown
1:53 PM 46.0 °F 38.3 °F 33.1 °F 61% 29.66 in 10.0 mi SSW 20.7 mph 29.9 mph N/A   Unknown
2:53 PM 48.9 °F - 34.0 °F 56% 29.64 in 10.0 mi SW 19.6 mph - N/A   Clear
3:53 PM 50.0 °F - 35.1 °F 57% 29.62 in 10.0 mi SW 19.6 mph 29.9 mph N/A   Clear
4:53 PM 51.1 °F - 37.0 °F 59% 29.63 in 10.0 mi WSW 23.0 mph 29.9 mph N/A   Partly Cloudy
5:53 PM 50.0 °F - 37.0 °F 61% 29.65 in 10.0 mi WSW 15.0 mph - N/A   Overcast
6:53 PM 48.0 °F - 35.1 °F 61% 29.68 in 10.0 mi West 17.3 mph - N/A   Clear
7:53 PM 46.0 °F 39.6 °F 34.0 °F 63% 29.72 in 10.0 mi West 15.0 mph 24.2 mph N/A   Clear
8:53 PM 43.0 °F 34.5 °F 33.1 °F 68% 29.77 in 10.0 mi West 19.6 mph - N/A   Partly Cloudy
9:53 PM 42.1 °F 34.2 °F 32.0 °F 67% 29.80 in 10.0 mi WNW 16.1 mph - N/A   Mostly Cloudy
10:53 PM 39.9 °F 32.5 °F 30.9 °F 70% 29.83 in 10.0 mi WNW 12.7 mph - N/A   Mostly Cloudy
11:53 PM 37.0 °F 31.6 °F 30.9 °F 79% 29.82 in 10.0 mi West 6.9 mph - N/A   Clear